This demonstration page uses our WeatherBlox Daily Observations layout. Learn more.

Left ArrowRight Arrow

39.51506, -84.39828

Hourly Observations for May 9, 2020

Temp ( °F °C ) Dew Point ( °F °C ) Humidity (%) Winds ( mph kmh ) Pressure ( in mb ) Visibility ( mi km ) Precip ( " mm )
12:15 am 00:15 Clear 35 1.9 17 -8.1 48 48 N 9 15 30.17 1022 N/A 0 0
12:35 am 00:35 Clear 35 1.6 18 -7.6 51 51 NNW 8 13 30.18 1022 N/A 0 0
12:55 am 00:55 Clear 34 1.2 19 -7.1 54 54 N 8 13 30.17 1022 N/A 0 0
1:15 am 01:15 Clear 33 0.7 20 -6.6 59 59 NNW 6 9 30.18 1022 N/A 0 0
1:35 am 01:35 Clear 32 0.2 21 -6.3 62 62 NW 5 7 30.18 1022 N/A 0 0
1:55 am 01:55 Clear 32 -0.2 21 -6.1 65 65 Calm 30.19 1022 N/A 0 0
2:15 am 02:15 Clear 30 -1.3 21 -5.9 71 71 NW 5 7 30.19 1022 N/A 0 0
2:35 am 02:35 Clear 31 -0.7 21 -6.1 67 67 WNW 3 6 30.19 1022 N/A 0 0
2:55 am 02:55 Clear 30 -1.3 21 -5.9 71 71 NW 3 6 30.2 1023 N/A 0 0
3:15 am 03:15 Clear 30 -1.3 21 -6.1 70 70 NW 6 9 30.2 1023 N/A 0 0
3:35 am 03:35 Clear 29 -1.5 21 -6.3 70 70 NW 7 11 30.2 1023 N/A 0 0
3:55 am 03:55 Clear 29 -1.4 20 -6.8 67 67 NW 6 9 30.2 1023 N/A 0 0
4:15 am 04:15 Clear 30 -1.2 19 -7.3 64 64 NW 7 11 30.21 1023 N/A 0 0
4:35 am 04:35 Clear 30 -1.2 19 -7.5 63 63 NW 7 11 30.21 1023 N/A 0 0
4:55 am 04:55 Clear 29 -1.4 18 -7.6 63 63 NW 7 11 30.22 1023 N/A 0 0
5:15 am 05:15 Clear 29 -1.4 18 -7.6 63 63 NW 6 9 30.22 1023 N/A 0 0
5:35 am 05:35 Clear 29 -1.8 18 -7.6 65 65 NW 7 11 30.22 1023 N/A 0 0
5:55 am 05:55 Clear 29 -1.8 18 -7.6 65 65 NW 8 13 30.23 1024 N/A 0 0
6:15 am 06:15 Clear 29 -1.8 18 -7.6 65 65 NW 9 15 30.23 1024 N/A 0 0
6:35 am 06:35 Sunny 29 -1.7 18 -7.6 64 64 NW 7 11 30.23 1024 N/A 0 0
6:55 am 06:55 Sunny 29 -1.4 19 -7.4 64 64 NW 7 11 30.24 1024 N/A 0 0
7:15 am 07:15 Sunny 31 -0.8 19 -7.2 62 62 NW 7 11 30.24 1024 N/A 0 0
7:35 am 07:35 Sunny 32 0.2 19 -7.3 57 57 WNW 9 15 30.24 1024 N/A 0 0
7:55 am 07:55 Sunny 34 1.1 19 -7.5 53 53 NW 6 9 30.24 1024 N/A 0 0
8:15 am 08:15 Sunny 36 2 19 -7.1 51 51 NW 10 17 30.25 1024 N/A 0 0
8:35 am 08:35 Sunny 37 2.7 19 -7 49 49 WNW 10 17 30.26 1025 N/A 0 0
8:55 am 08:55 Sunny 38 3.2 19 -7.2 47 47 NNW 9 15 30.26 1025 N/A 0 0
9:15 am 09:15 Sunny 39 3.8 19 -7.2 45 45 NW 12 19 30.28 1025 N/A 0 0
9:35 am 09:35 Sunny 39 4.1 19 -7 45 45 WNW 10 17 30.27 1025 N/A 0 0
9:55 am 09:55 Sunny 41 4.8 20 -6.9 43 43 NW 13 20 30.27 1025 N/A 0 0
10:15 am 10:15 Sunny 42 5.4 20 -6.6 42 42 NW 13 20 30.28 1025 N/A 0 0
10:35 am 10:35 Partly Cloudy 42 5.4 20 -6.9 41 41 WNW 15 24 30.28 1025 N/A 0 0
10:55 am 10:55 Partly Cloudy 44 6.5 21 -6 41 41 NNW 10 17 30.28 1025 N/A 0 0
11:15 am 11:15 Sunny 44 6.4 21 -6.3 40 40 NW 15 24 30.29 1026 N/A 0 0
11:35 am 11:35 Mostly Cloudy 44 6.5 19 -7.2 37 37 NW 17 28 30.29 1026 N/A 0 0
11:55 am 11:55 Mostly Cloudy 45 7.2 20 -6.5 37 37 NW 12 19 30.3 1026 N/A 0 0
12:15 pm 12:15 Partly Cloudy 46 7.7 20 -6.5 36 36 NNW 14 22 30.28 1026 N/A 0 0
12:35 pm 12:35 Partly Cloudy 47 8.2 23 -5.1 39 39 N 16 26 30.28 1026 N/A 0 0
12:55 pm 12:55 Partly Cloudy 47 8.3 23 -5.2 38 38 WNW 12 19 30.28 1026 N/A 0 0
1:15 pm 13:15 Partly Cloudy 48 8.8 24 -4.4 39 39 NW 12 19 30.27 1025 N/A 0 0
1:35 pm 13:35 Partly Cloudy 48 9 24 -4.6 38 38 W 13 20 30.27 1025 N/A 0 0
1:55 pm 13:55 Partly Cloudy 49 9.3 24 -4.6 37 37 NW 15 24 30.27 1025 N/A 0 0
2:15 pm 14:15 Mostly Cloudy 48 8.7 22 -5.5 36 36 WNW 14 22 30.26 1025 N/A 0 0
2:35 pm 14:35 Partly Cloudy 50 10.1 25 -4.1 37 37 WNW 12 19 30.26 1025 N/A 0 0
2:55 pm 14:55 Sunny 50 10.1 23 -5.1 34 34 NW 12 19 30.25 1024 N/A 0 0
3:15 pm 15:15 Sunny 50 9.9 22 -5.6 33 33 WNW 9 15 30.25 1024 N/A 0 0
3:35 pm 15:35 Partly Cloudy 50 10.2 22 -5.5 33 33 W 9 15 30.24 1024 N/A 0 0
3:55 pm 15:55 Partly Cloudy 52 11.1 24 -4.7 33 33 W 9 15 30.23 1024 N/A 0 0
4:15 pm 16:15 Sunny 52 11.1 23 -4.8 33 33 WNW 16 26 30.23 1024 N/A 0 0
4:35 pm 16:35 Sunny 52 11.1 22 -5.4 31 31 NW 7 11 30.22 1023 N/A 0 0
4:55 pm 16:55 Sunny 53 11.6 23 -4.9 31 31 WNW 9 15 30.22 1023 N/A 0 0
5:15 pm 17:15 Sunny 53 11.5 22 -5.8 30 30 W 14 22 30.22 1023 N/A 0 0
5:35 pm 17:35 Sunny 53 11.9 23 -4.8 31 31 W 7 11 30.2 1023 N/A 0 0
5:55 pm 17:55 Sunny 53 11.6 22 -5.6 30 30 W 12 19 30.21 1023 N/A 0 0
6:15 pm 18:15 Sunny 53 11.8 23 -5 31 31 WSW 12 19 30.19 1022 N/A 0 0
6:35 pm 18:35 Sunny 53 11.6 22 -5.4 30 30 NW 9 15 30.2 1023 N/A 0 0
6:55 pm 18:55 Sunny 53 11.4 21 -5.9 30 30 W 10 17 30.19 1022 N/A 0 0
7:15 pm 19:15 Sunny 52 11.2 23 -5.1 32 32 WNW 6 9 30.19 1022 N/A 0 0
7:35 pm 19:35 Sunny 51 10.8 22 -5.3 32 32 WSW 8 13 30.19 1022 N/A 0 0
7:55 pm 19:55 Sunny 51 10.3 23 -5.1 34 34 WSW 9 15 30.19 1022 N/A 0 0
8:15 pm 20:15 Sunny 49 9.4 24 -4.4 38 38 W 7 11 30.2 1023 N/A 0 0
8:35 pm 20:35 Sunny 46 8 26 -3.4 45 45 WSW 6 9 30.21 1023 N/A 0 0
8:55 pm 20:55 Clear 44 6.7 28 -2.3 53 53 WSW 6 9 30.22 1023 N/A 0 0
9:15 pm 21:15 Clear 45 7.1 28 -2.1 52 52 WSW 5 7 30.23 1024 N/A 0 0
9:35 pm 21:35 Clear 44 6.5 33 0.3 65 65 WSW 5 7 30.23 1024 N/A 0 0
9:55 pm 21:55 Clear 39 3.9 33 0.7 80 80 Calm 30.24 1024 N/A 0 0
10:15 pm 22:15 Clear 39 4 33 0.8 80 80 Calm 30.25 1025 N/A 0 0
10:35 pm 22:35 Clear 40 4.2 33 0.7 78 78 Calm 30.24 1024 N/A 0 0
10:55 pm 22:55 Clear 38 3.4 33 0.4 81 81 Calm 30.25 1024 N/A 0 0
11:15 pm 23:15 Clear 38 3.3 33 0.3 81 81 Calm 30.25 1024 N/A 0 0
11:35 pm 23:35 Clear 37 2.7 32 0.2 84 84 Calm 30.25 1024 N/A 0 0
11:55 pm 23:55 undefined 36 2.4 32 0.1 85 85 Calm 30.25 1024 N/A 0 0

Powered by AerisWeather